Theta_e
298 298 298 298 299 299 299 300 300 300 301 301 301 303 306 307 307 307 305 303 306 309 310 311 311 311 311 310 310 309 309 309 309 309 309 310 309 310 310 310 310 311 311 310 310 310 310 310 309 309 309 309 309 309 310 311 311 310 310 311 312 312 310 309 309 309 309 310 310 310 310 310 311 312 313 312 313 313 313 313 312 312 312 312 312 312 313
298 298 298 298 298 299 299 299 300 300 300 301 301 304 306 306 307 307 305 304 306 308 309 309 309 311 311 310 310 309 309 309 309 309 310 309 309 310 310 309 310 309 309 309 310 309 309 309 309 309 309 309 308 309 310 311 311 311 311 312 311 310 309 310 309 308 310 310 310 310 309 310 310 312 313 312 311 312 313 313 312 312 313 312 311 311 312
297 298 297 297 298 298 299 299 299 300 300 300 301 303 305 306 307 308 306 305 307 308 309 310 310 310 311 310 310 309 308 308 309 309 309 308 309 309 309 309 308 308 308 308 309 308 308 309 309 308 309 309 308 308 309 310 312 312 311 313 311 308 309 311 309 308 309 309 309 310 309 310 310 311 311 311 310 311 312 312 312 312 312 312 311 311 312
297 297 297 297 297 298 298 299 299 300 300 301 301 302 305 307 307 308 307 307 308 308 308 309 310 309 309 309 309 309 309 308 307 308 308 308 308 309 309 308 308 308 308 308 308 308 307 308 308 308 309 309 308 308 308 309 312 312 310 310 310 309 310 311 309 309 309 309 309 310 309 310 310 310 310 310 310 311 311 311 310 311 311 311 311 312 312
297 297 297 297 297 297 298 298 299 300 300 300 301 302 305 307 307 307 307 307 308 308 308 308 309 308 308 309 309 309 309 309 307 307 308 307 307 309 308 308 308 309 309 309 310 309 308 308 308 309 309 309 307 307 307 308 308 310 309 309 309 309 309 310 310 310 309 308 309 309 308 308 309 309 309 310 310 311 311 310 310 311 311 310 311 312 311
296 296 297 297 297 296 297 298 298 299 300 300 302 304 305 306 307 306 305 307 308 307 307 308 308 308 308 309 309 309 308 308 308 307 307 307 307 308 308 307 307 308 309 310 310 309 309 309 310 310 309 309 308 306 307 307 306 308 309 308 309 309 309 310 310 310 308 308 308 308 308 307 308 308 309 309 310 310 310 310 310 310 310 310 310 311 311
296 296 296 296 297 296 296 297 297 298 299 299 301 304 305 305 306 304 304 307 307 307 306 307 307 307 308 308 308 308 308 308 307 306 307 308 307 307 308 308 307 306 307 308 309 310 310 310 310 311 309 309 309 308 308 307 306 308 308 308 309 308 308 310 309 308 308 308 308 308 307 307 308 308 308 309 309 310 310 310 310 310 310 310 310 311 311
296 296 296 296 296 296 295 296 296 297 298 299 300 301 302 303 304 304 305 306 306 306 306 307 307 307 307 308 307 307 307 307 306 305 306 308 307 307 308 307 306 306 306 308 309 309 309 309 310 310 309 309 309 308 308 307 307 307 307 308 308 307 307 309 308 307 307 307 307 307 307 307 307 307 308 308 308 309 309 310 310 310 310 310 311 311 310
296 296 296 296 296 296 295 295 295 296 297 298 298 297 298 299 300 302 305 305 305 306 306 306 306 306 306 307 306 306 306 305 305 304 304 305 306 306 307 307 306 306 306 307 307 305 305 307 307 307 308 308 307 307 307 307 307 307 306 307 308 306 307 308 307 306 307 306 306 307 306 306 306 307 307 307 308 308 309 309 309 310 310 309 310 309 309
296 296 295 295 295 295 295 294 294 295 296 296 296 295 296 298 298 300 304 305 304 305 305 305 305 305 305 305 305 305 305 304 305 304 303 303 304 304 306 307 306 307 307 306 303 302 303 304 304 304 305 305 305 306 306 305 306 306 306 307 306 306 306 306 306 306 306 306 306 306 305 305 305 306 307 307 307 307 307 308 308 309 309 308 308 309 308
296 295 295 295 295 295 295 294 293 293 294 295 295 295 295 296 297 299 303 304 303 304 304 304 305 305 304 303 304 304 304 304 305 305 304 303 303 302 304 306 306 306 305 303 301 301 301 301 302 303 304 304 305 305 305 305 305 305 306 305 306 306 305 305 305 305 305 305 305 304 304 304 305 306 307 307 307 307 307 307 307 308 309 308 308 308 308
296 295 295 295 295 295 294 293 293 292 293 293 294 294 294 295 297 300 303 302 303 303 303 303 303 303 303 303 304 304 303 303 304 304 305 304 303 302 302 304 305 304 301 300 301 301 302 302 302 303 304 304 305 305 304 305 304 305 305 305 305 305 304 304 304 304 304 304 304 303 303 304 305 306 306 306 306 306 306 307 308 308 308 308 307 307 307
296 295 294 295 295 295 294 293 293 292 292 293 293 293 293 293 297 300 301 301 302 302 302 302 302 302 302 303 304 303 303 303 303 303 304 304 303 302 301 301 302 301 299 299 301 303 303 304 304 304 304 304 304 304 304 304 304 305 305 304 304 304 304 304 303 303 304 303 303 303 304 305 305 305 306 306 306 306 306 306 307 307 307 307 307 307 308
296 295 294 294 295 295 294 294 292 291 292 292 292 292 292 292 295 298 299 301 301 301 301 302 302 302 302 303 303 303 303 303 303 303 303 303 302 301 300 299 299 299 298 299 302 303 303 303 303 303 303 303 304 304 303 303 303 304 304 304 304 304 303 303 303 303 303 303 303 304 304 304 304 305 306 306 306 307 306 306 306 306 306 307 307 306 307
297 296 295 294 294 295 294 294 293 291 291 292 291 291 291 291 292 295 297 300 300 301 302 302 302 302 303 302 302 302 303 303 302 303 302 301 301 300 299 299 298 298 299 300 302 303 302 303 303 303 303 303 303 303 303 303 303 303 303 304 303 303 303 303 303 303 303 302 302 303 303 303 304 306 306 307 307 308 307 305 305 305 305 305 306 305 306
297 296 295 294 294 294 294 294 293 292 291 291 291 291 290 291 291 292 295 298 299 300 301 300 299 300 301 301 300 301 302 302 301 302 302 301 300 299 299 298 298 299 300 301 302 302 301 302 302 302 302 303 302 302 302 302 302 302 302 303 302 303 303 303 302 302 302 302 302 302 302 303 305 305 305 305 306 307 307 305 303 303 304 304 304 305 305
297 297 296 295 294 293 293 294 294 292 291 291 291 291 291 291 291 291 294 297 297 299 299 298 298 300 300 300 300 300 301 301 300 301 301 300 300 299 298 298 298 299 299 300 301 301 300 301 301 301 302 302 302 302 302 302 302 302 302 302 302 302 302 302 302 302 302 302 302 302 302 303 304 305 304 305 305 305 305 304 302 302 302 302 303 304 304
296 296 296 295 294 293 293 293 294 293 291 290 292 293 292 293 292 291 294 297 297 298 298 296 298 300 299 298 300 300 300 300 300 300 300 299 300 299 298 298 299 299 299 300 301 301 300 301 301 301 302 302 301 301 301 302 302 302 302 302 302 302 302 302 302 302 302 302 302 302 302 303 304 303 303 304 304 304 304 302 301 301 301 301 301 302 303
296 296 296 295 294 292 292 292 293 293 291 291 294 294 293 293 293 292 294 296 297 298 297 295 296 298 296 297 299 298 298 299 299 299 299 299 300 299 297 298 298 299 300 300 300 300 300 300 301 301 301 301 301 301 301 301 301 301 302 301 302 302 301 301 301 301 301 301 301 301 302 302 302 302 302 303 303 303 302 300 300 300 300 300 300 300 301
296 296 296 296 294 292 291 292 293 293 292 292 294 295 294 293 292 292 294 295 296 297 297 295 295 297 296 296 298 298 298 299 299 299 299 299 299 299 298 298 299 299 299 299 299 299 299 300 301 300 300 301 301 300 300 301 300 300 300 301 301 301 300 300 301 301 300 300 301 300 301 301 301 301 301 301 301 301 300 300 300 300 300 299 299 299 300
296 296 296 295 294 292 291 292 292 293 293 293 294 295 295 294 293 292 293 294 295 297 297 295 295 296 295 295 296 297 297 299 299 299 299 299 299 299 299 298 298 298 299 298 298 299 299 299 299 299 299 300 300 299 299 300 299 300 300 300 300 300 300 300 300 300 300 299 300 300 300 301 300 300 300 300 299 299 300 300 300 300 299 299 299 299 300
295 296 295 294 293 292 291 291 292 293 293 293 294 296 295 294 293 292 293 294 295 296 296 294 294 294 294 294 295 295 296 296 296 297 298 298 299 299 298 298 298 298 298 298 298 298 298 298 298 297 297 298 298 298 298 298 298 298 299 298 298 299 299 299 299 299 299 299 299 300 300 300 300 299 299 299 299 299 299 299 299 299 299 299 299 299 299
295 295 294 293 293 292 291 291 292 293 293 294 295 295 295 293 292 292 294 294 295 295 295 294 295 295 294 295 295 294 295 295 295 295 296 297 299 298 298 299 299 298 298 298 297 297 298 297 297 297 297 297 297 297 297 297 297 297 298 298 298 298 299 298 298 298 298 298 299 299 299 299 299 298 298 298 298 298 299 298 298 299 298 299 299 299 299
295 295 294 293 292 292 290 290 292 294 294 294 294 295 294 293 293 293 294 295 295 296 296 295 296 295 294 294 295 294 295 295 295 295 295 296 298 298 298 298 298 298 299 298 297 297 297 297 297 297 296 297 297 296 296 297 297 297 297 297 297 298 298 297 297 297 297 297 298 298 298 298 298 298 298 298 298 298 298 298 298 298 298 298 298 298 298
295 295 295 293 292 292 290 290 292 293 294 294 295 295 294 294 293 293 295 295 295 295 296 296 296 294 293 293 294 294 294 295 295 295 295 295 296 297 298 297 296 297 298 297 297 297 297 297 297 296 296 297 297 296 296 296 296 296 296 296 297 297 297 296 296 297 297 297 297 298 297 297 297 297 297 297 297 297 297 297 297 297 297 297 298 298 298
295 295 295 294 293 292 291 290 291 293 294 294 295 294 294 294 293 293 295 295 294 294 295 296 295 293 293 294 295 294 294 294 294 295 295 295 295 296 296 296 296 296 297 297 297 297 297 297 297 296 296 297 296 296 296 296 296 296 296 296 297 297 296 296 296 296 296 297 297 297 297 297 297 297 297 297 297 297 297 297 297 297 297 297 297 297 297
295 295 295 295 294 293 291 290 291 293 294 294 295 295 294 294 294 293 294 295 295 295 295 296 295 294 294 295 295 294 294 294 294 295 295 295 295 296 295 296 296 297 297 297 297 297 297 297 297 296 297 297 297 297 297 297 296 296 296 297 297 296 296 296 296 295 296 296 297 297 296 296 297 297 297 297 296 296 297 297 297 297 297 297 297 297 297
295 295 295 295 294 293 292 290 290 292 294 294 294 295 295 295 294 293 293 294 295 295 295 296 296 295 295 295 294 294 294 293 293 294 294 294 295 295 295 296 296 297 297 297 297 297 297 297 297 297 297 297 296 296 297 297 296 295 296 296 296 296 296 296 295 295 295 296 296 296 296 296 296 296 296 297 297 297 297 297 297 297 297 297 297 297 297
295 295 295 295 294 292 292 290 290 292 294 294 294 295 296 295 295 294 293 293 294 295 296 295 295 295 295 295 295 295 294 293 293 294 294 294 294 294 295 296 296 296 297 297 297 297 297 297 296 297 297 297 296 295 296 295 295 295 296 296 296 296 296 296 295 295 296 295 295 296 296 296 296 296 296 296 297 297 297 298 298 298 298 297 297 297 298
295 295 295 294 293 292 291 290 291 293 294 294 294 296 296 296 295 294 294 293 294 295 295 295 295 295 295 294 295 295 295 294 294 294 294 294 295 294 295 295 296 296 297 297 296 296 296 296 296 296 297 297 296 295 295 295 294 295 296 296 295 295 295 295 295 296 296 296 296 296 296 296 296 296 296 296 296 297 297 297 297 297 297 297 297 297 297
295 294 295 294 293 292 291 290 291 293 294 295 295 296 296 297 296 295 294 293 294 294 295 295 295 295 295 294 294 294 294 294 294 294 294 294 295 294 294 295 296 296 296 296 296 296 295 296 296 296 297 297 296 295 295 294 294 295 295 295 295 295 295 295 296 296 296 296 295 295 295 296 296 296 296 296 296 297 297 297 296 297 296 296 296 296 296
294 294 294 293 293 292 292 291 292 294 294 295 295 295 295 295 295 294 294 294 294 294 295 295 295 295 295 295 294 294 293 294 294 294 294 294 294 294 294 294 295 295 295 295 295 295 295 296 295 295 296 297 296 294 294 294 294 294 295 295 295 295 295 295 295 295 295 295 295 295 296 296 296 296 296 296 296 296 296 296 296 296 296 296 296 296 296
294 294 294 293 292 293 293 292 292 293 293 293 294 295 294 294 294 294 294 294 294 294 294 295 295 294 294 295 295 294 294 295 295 295 294 294 293 294 295 294 294 295 295 295 295 295 295 295 295 294 295 296 295 294 294 294 294 295 295 295 295 295 295 295 295 295 295 295 295 296 296 296 296 295 295 295 295 295 295 295 296 296 296 296 296 296 297
294 294 294 293 293 293 294 293 293 294 294 294 295 295 294 294 294 294 294 294 294 294 294 294 295 295 294 295 295 294 294 295 295 294 295 294 293 294 294 294 294 294 294 294 294 295 295 295 295 294 295 295 295 294 294 294 294 295 295 294 295 295 295 295 295 295 295 295 295 295 295 295 295 295 295 295 295 295 295 295 295 296 296 296 296 297 297
294 294 294 293 293 293 294 294 294 295 295 295 295 294 293 293 294 294 293 294 295 295 295 295 295 295 294 294 295 294 294 295 295 294 294 294 294 293 294 294 294 294 294 293 294 294 295 295 294 294 294 295 294 294 294 294 295 294 294 295 295 295 295 295 294 294 295 295 295 295 295 295 294 295 295 295 295 295 295 295 295 296 296 296 297 297 297
294 294 294 293 293 293 295 295 294 295 295 294 293 293 292 293 293 292 293 294 295 295 296 295 295 295 294 294 294 294 294 295 295 294 294 294 294 294 294 293 294 294 294 294 294 294 294 294 294 294 294 294 293 294 294 294 294 294 295 295 295 295 295 295 295 294 295 295 295 295 295 295 295 295 295 295 295 295 295 295 295 295 296 296 296 296 296
293 293 294 294 294 295 295 295 294 294 293 293 293 293 293 293 293 294 294 295 294 294 295 296 295 295 295 294 295 295 295 295 295 294 294 294 294 294 293 293 293 294 293 294 293 293 294 294 293 293 293 293 294 294 294 294 294 294 295 295 295 295 295 295 294 294 295 295 295 295 295 295 295 295 295 295 295 295 294 294 294 294 294 294 294 294 294
293 293 294 293 294 295 295 294 293 293 292 292 293 294 294 294 295 295 295 295 295 294 295 296 296 295 295 295 295 295 294 294 295 294 294 294 293 293 293 293 293 293 293 293 293 293 293 293 293 293 293 294 294 294 294 294 294 295 295 295 295 295 295 294 294 295 295 295 295 295 295 295 295 295 295 295 294 294 293 293 292 292 292 292 292 292 292
294 294 293 294 294 294 294 293 292 292 292 293 294 295 295 295 295 295 295 295 295 296 295 296 296 296 295 296 295 295 294 294 294 294 294 294 293 293 293 293 293 292 292 292 293 293 292 293 293 292 293 294 294 294 294 294 294 294 295 295 295 294 294 295 294 295 295 295 295 295 295 294 294 294 294 294 293 293 292 292 292 291 291 291 291 291 291
295 294 294 294 294 293 293 292 292 292 293 294 294 295 295 295 295 295 295 295 295 295 295 295 295 295 295 295 295 295 294 294 294 294 293 293 293 293 292 292 292 292 291 292 293 293 292 292 292 292 292 293 294 294 294 294 294 294 295 295 294 294 294 295 295 295 295 295 295 295 294 294 294 293 293 293 293 292 292 291 291 291 291 291 291 291 291
294 294 294 294 293 293 292 293 293 293 294 294 294 294 294 294 294 294 295 294 294 294 295 295 296 296 295 295 295 295 294 294 294 293 293 293 293 293 292 293 292 291 291 292 293 293 292 292 292 292 293 293 293 293 294 294 294 294 294 294 294 294 294 295 295 295 294 294 294 294 294 293 293 293 293 293 292 292 292 291 291 291 291 291 291 291 291
294 294 294 293 293 292 293 293 294 294 294 294 293 293 293 293 294 294 294 294 294 294 295 295 295 295 295 294 294 294 294 293 293 293 293 293 293 293 292 292 292 291 291 292 293 292 292 291 291 292 293 293 293 293 294 294 294 294 294 294 294 294 295 295 295 294 294 294 294 293 293 293 293 293 293 293 292 292 292 292 291 291 291 291 291 290 290
294 293 293 293 292 292 292 293 294 294 293 293 292 292 292 293 293 294 294 294 294 294 294 294 294 294 294 294 294 294 294 293 293 293 293 293 293 292 292 292 291 291 292 292 292 292 291 291 291 292 293 293 293 293 294 294 294 294 294 294 294 295 295 295 294 294 293 293 293 293 293 293 293 293 292 292 292 292 292 292 292 292 291 291 291 291 290
293 293 293 293 292 292 292 293 293 293 293 293 292 293 293 293 293 294 294 294 294 294 294 294 294 294 294 294 294 294 294 293 293 293 293 293 292 292 291 291 292 292 292 292 291 291 291 291 292 293 293 293 293 293 293 293 293 294 294 294 294 295 294 294 294 293 293 293 293 293 293 293 293 293 293 293 293 292 292 292 292 292 291 291 291 291 291
293 293 293 293 292 292 292 292 292 292 293 293 293 293 293 294 294 294 294 294 294 294 294 294 294 294 294 294 294 293 293 293 293 293 293 292 292 291 291 292 292 292 292 291 291 291 291 291 293 293 293 292 293 293 293 293 294 294 294 294 295 295 294 294 293 293 293 293 293 293 293 293 293 293 293 293 293 292 292 292 292 291 291 291 290 290 290
293 293 292 292 292 292 292 292 292 293 293 293 293 294 294 294 294 295 294 293 293 293 293 294 293 293 294 294 294 293 293 293 293 293 293 292 291 291 292 292 292 291 291 291 291 291 291 292 293 293 292 292 292 293 293 294 294 294 294 294 294 294 294 294 293 294 293 293 293 293 293 293 293 293 293 292 291 291 291 290 290 289 289 289 288 288 288
293 292 292 292 292 292 292 293 293 293 293 294 294 294 294 294 294 294 293 293 293 293 293 293 293 293 293 293 293 293 293 293 292 292 292 292 291 292 292 291 291 291 290 290 290 291 292 292 293 293 292 292 292 292 293 294 294 294 294 294 294 294 294 294 294 294 293 293 293 293 293 293 293 293 292 291 289 288 288 288 288 288 287 287 287 286 286
293 292 292 293 293 293 293 293 294 294 294 294 294 294 293 293 293 294 294 293 293 293 293 293 293 294 293 293 293 293 293 293 292 292 292 292 291 291 291 290 290 291 291 290 291 292 292 293 293 292 292 291 292 292 293 294 294 294 294 294 294 294 294 294 294 294 293 293 293 293 293 293 293 293 292 290 288 287 287 287 287 287 287 286 286 286 286
292 293 292 293 293 293 294 294 294 295 295 295 294 294 293 293 294 294 293 293 292 292 293 293 293 293 293 293 292 292 292 292 292 292 292 291 291 290 290 290 290 290 291 291 292 293 293 293 292 292 292 291 291 292 293 294 294 294 294 294 294 294 294 294 294 294 293 293 293 293 293 294 294 293 291 290 288 288 287 287 287 286 286 286 286 285 285
292 292 293 293 293 294 294 294 294 294 295 295 294 294 294 294 294 294 293 293 293 293 293 293 292 293 293 292 292 292 292 292 292 292 291 291 291 291 290 290 290 291 291 292 293 293 293 292 292 292 292 292 292 292 293 294 294 294 294 294 294 294 294 294 294 294 294 293 293 293 294 294 294 293 291 289 288 288 287 287 287 286 286 286 285 285 285
292 292 293 293 294 294 294 294 294 294 295 295 294 294 294 294 294 294 293 292 292 293 293 293 293 293 292 292 291 292 292 292 292 291 291 292 292 291 290 290 291 292 293 293 293 293 292 292 292 292 292 292 292 292 293 294 294 294 293 293 294 294 294 294 294 294 294 294 293 293 294 294 294 292 290 288 288 288 287 287 287 286 286 286 285 285 285
292 292 293 293 293 293 293 294 294 294 294 294 294 294 294 294 294 293 293 292 292 293 293 293 293 292 292 292 292 292 291 291 291 290 291 292 292 291 291 291 292 293 293 293 293 292 292 292 292 292 291 291 292 292 293 294 294 294 293 293 293 294 294 294 294 294 294 294 294 294 294 294 293 291 289 289 289 290 289 288 287 286 286 286 285 285 285
Wind_Speed
24 24 24 24 24 23 23 22 22 21 18 16 14 10 5 3 5 4 6 5 4 6 6 3 4 4 1 1 1 1 1 3 3 3 3 3 2 3 3 3 3 4 4 4 6 6 5 5 4 3 3 3 3 4 2 2 4 4 3 1 3 1 3 6 7 8 8 3 3 3 2 3 7 7 6 6 6 7 8 8 8 7 8 8 8 10 5
24 24 24 24 24 24 23 22 22 20 18 17 15 10 5 6 5 4 6 3 6 7 5 4 5 3 2 2 3 3 1 1 2 2 2 1 1 3 2 2 1 1 2 4 6 5 4 5 4 3 4 3 5 4 2 2 4 2 2 1 2 2 4 4 6 7 7 6 5 5 5 6 7 6 4 4 7 7 6 7 7 7 11 13 10 10 6
25 25 24 24 25 24 23 22 21 19 17 15 13 9 6 6 3 1 6 5 3 3 2 2 3 2 4 4 3 3 2 2 2 2 1 2 2 2 0 1 1 2 3 4 5 4 5 5 3 3 4 4 4 2 2 1 2 3 5 3 2 4 5 4 6 7 6 7 6 3 2 4 5 4 3 4 7 8 6 7 8 9 11 12 10 10 7
26 26 25 25 25 25 24 22 21 19 16 12 11 9 6 4 1 1 4 7 5 5 6 4 2 1 2 3 2 2 4 3 3 1 0 2 1 2 1 0 2 3 4 6 6 6 6 5 4 4 5 5 4 2 2 1 2 4 5 2 2 5 5 6 9 10 8 9 8 4 5 6 6 5 6 5 5 6 6 7 9 9 10 11 11 12 11
27 27 26 25 25 25 24 23 22 19 15 12 10 9 6 2 2 3 2 3 5 5 6 5 2 1 1 1 1 1 3 2 2 1 1 2 0 1 1 2 4 4 5 7 6 6 6 6 6 5 4 4 5 3 2 1 3 2 1 0 3 5 6 8 11 12 12 13 12 7 6 9 12 11 10 8 6 7 8 9 9 9 9 10 10 12 13
26 27 26 26 25 26 25 24 23 20 19 16 10 7 7 4 2 4 3 2 2 3 5 6 4 2 1 1 0 0 2 1 1 2 1 0 0 1 2 3 3 3 3 5 5 6 7 7 6 4 4 4 5 5 5 3 1 2 3 1 2 5 7 8 10 12 13 13 12 9 8 10 12 12 12 12 10 10 10 11 12 11 10 11 11 12 12
26 27 27 26 25 26 26 26 24 22 20 16 8 6 8 6 3 5 4 2 4 4 4 4 2 2 2 1 1 1 0 1 2 2 1 1 1 2 3 3 1 1 2 5 5 4 4 4 5 3 3 3 4 5 5 4 4 4 3 1 1 4 5 6 9 12 13 13 13 11 10 11 13 14 14 14 14 14 13 13 14 14 15 14 12 13 11
27 27 27 27 26 26 26 26 25 23 18 15 14 14 10 6 4 4 3 2 4 5 4 3 1 1 1 1 2 2 1 2 3 3 4 1 1 2 2 2 2 1 0 1 1 3 4 1 2 1 1 3 3 4 3 2 5 5 3 1 1 3 3 2 5 10 11 13 14 13 12 13 15 15 15 15 15 15 14 14 12 13 14 13 12 12 10
27 27 27 27 27 26 26 25 25 24 19 18 20 19 13 8 6 4 3 2 4 4 3 2 2 1 2 2 2 2 3 4 3 4 6 5 4 4 3 1 1 1 3 4 5 6 6 4 4 3 3 2 2 2 2 1 3 4 3 2 2 3 5 3 5 9 9 10 13 13 12 14 16 16 16 15 15 13 13 12 10 10 11 11 11 12 10
27 28 27 27 27 26 25 25 25 24 22 22 21 19 16 11 8 6 3 1 3 4 2 1 2 1 3 4 3 3 4 4 1 1 3 5 6 6 5 3 1 2 3 6 7 7 6 6 6 5 5 4 4 4 3 4 5 4 3 3 2 4 6 5 7 9 9 8 8 8 8 10 12 10 10 14 16 15 15 14 13 13 12 10 10 9 6
27 27 27 27 27 26 25 24 25 24 23 23 21 20 19 14 10 7 5 2 3 3 2 2 2 2 3 5 3 2 3 4 2 2 1 4 6 7 6 4 3 1 3 6 7 7 7 6 5 5 6 6 7 7 6 7 8 7 5 4 4 5 6 6 7 8 9 7 4 4 7 9 5 1 0 6 10 12 14 13 13 12 10 8 9 9 7
26 26 26 26 26 26 25 23 23 24 23 21 19 18 18 15 11 8 7 2 3 3 2 4 4 3 3 4 3 2 4 4 5 4 2 4 5 6 6 6 3 2 5 8 8 7 5 4 4 5 6 8 9 9 10 10 10 10 8 6 6 5 6 6 6 7 8 6 4 6 8 5 2 4 3 1 3 6 9 9 6 5 6 7 9 10 8
25 25 25 25 25 24 24 23 22 22 21 19 19 17 16 14 11 8 7 4 2 3 3 3 3 3 3 3 3 2 3 4 3 3 3 3 4 5 6 6 5 6 8 9 8 6 5 5 5 6 8 8 10 11 12 13 12 11 10 9 8 6 6 6 6 6 7 6 6 8 5 3 2 1 2 1 3 4 6 6 2 2 3 4 4 4 3
25 24 24 24 23 23 23 22 21 21 19 18 18 17 15 14 12 9 7 4 2 3 2 1 3 3 3 4 4 1 1 2 1 2 3 3 4 5 5 6 6 6 7 7 6 5 5 4 5 7 7 7 8 9 10 10 9 9 9 9 9 8 7 6 6 7 7 8 9 8 8 7 6 4 1 1 2 2 3 5 2 3 3 2 2 1 1
24 23 23 23 22 22 22 21 20 19 18 17 17 17 16 15 12 9 7 5 2 2 2 2 4 4 3 4 5 3 1 1 1 1 3 3 3 4 4 6 6 5 5 5 5 4 3 4 6 6 6 6 7 5 5 5 3 3 5 7 7 7 7 6 7 6 6 8 9 8 10 9 3 2 4 3 2 2 3 5 3 3 4 3 2 2 2
23 23 22 22 22 21 20 20 20 19 17 16 16 16 16 14 12 10 7 5 4 1 4 5 4 5 3 2 3 3 3 2 2 1 2 2 3 4 4 6 5 3 4 5 5 3 3 4 5 5 6 7 6 4 4 5 3 4 4 5 5 5 6 6 7 7 6 8 8 8 9 6 2 5 3 3 2 2 3 5 4 2 5 4 3 3 3
22 22 22 22 21 21 19 19 19 18 17 15 15 15 16 14 12 10 7 5 4 2 4 4 4 4 3 1 1 3 4 3 2 2 1 1 4 5 5 5 2 1 3 5 4 3 4 5 5 6 6 4 4 5 4 5 5 4 5 6 7 6 5 6 8 8 8 8 8 7 7 3 3 4 3 4 3 1 4 6 3 4 8 7 5 5 5
22 21 21 21 21 20 19 18 18 17 16 15 13 14 16 15 13 11 7 4 3 3 3 3 3 3 3 3 3 4 4 3 1 1 1 1 4 6 7 6 3 1 2 3 3 3 4 5 5 6 4 0 1 4 4 3 4 5 4 4 6 6 5 6 7 8 9 10 9 8 6 1 5 4 4 4 1 3 6 5 2 6 10 10 9 8 8
21 21 20 20 20 20 18 17 17 16 16 15 12 12 15 17 15 11 8 5 4 3 2 1 3 5 5 3 2 3 3 3 3 3 2 1 4 5 3 2 3 2 2 2 2 2 3 4 3 4 4 2 1 3 4 2 3 4 4 5 6 5 5 6 7 8 8 8 7 8 5 3 7 5 3 2 2 4 3 4 5 8 11 12 11 11 10
21 21 20 19 19 19 18 17 16 15 14 14 12 10 12 16 17 13 9 5 3 3 4 3 5 4 5 4 3 3 2 2 3 4 2 2 6 6 4 2 3 3 2 1 0 0 2 3 1 1 4 2 0 1 3 3 3 3 4 5 4 3 4 6 6 6 7 7 8 9 5 4 8 6 2 1 3 5 6 8 10 11 12 12 11 11 10
22 21 20 19 19 19 17 16 16 14 12 12 12 9 10 14 18 15 10 6 3 2 2 3 4 0 3 3 2 3 3 4 4 4 3 4 6 6 1 2 4 3 3 2 1 1 1 2 1 1 3 2 1 1 3 4 3 2 1 4 5 4 4 6 5 3 4 6 5 3 1 2 5 6 4 3 6 9 11 13 14 13 11 10 9 9 9
22 21 20 19 20 19 17 15 14 12 10 10 10 9 10 14 17 15 10 7 4 2 2 2 2 0 1 2 3 2 2 3 3 4 4 4 4 4 2 3 3 4 4 4 2 1 1 2 2 2 3 3 3 3 3 4 4 2 1 3 4 1 2 4 5 3 4 7 8 7 8 9 9 9 8 10 12 12 12 13 14 14 12 11 11 12 12
22 22 21 19 19 19 17 15 13 11 9 9 9 9 11 16 18 15 10 7 5 5 6 6 5 5 4 2 2 2 2 3 3 4 5 5 3 2 2 3 3 3 3 4 4 3 2 2 2 3 3 2 3 4 4 4 5 3 2 4 5 4 4 5 6 6 9 11 11 11 13 14 13 13 14 15 14 12 11 12 13 14 14 14 15 15 16
22 22 21 20 18 18 16 13 12 10 8 8 9 9 11 15 18 16 11 6 3 2 3 4 4 4 2 3 3 2 1 3 4 4 5 5 4 2 3 4 3 1 3 4 3 3 3 2 2 2 3 2 2 3 4 3 3 3 3 5 6 3 3 5 7 8 8 7 6 8 12 15 16 17 17 16 15 13 13 14 15 15 15 16 16 17 18
22 22 22 21 19 18 15 12 10 9 7 6 7 8 9 13 17 17 12 7 5 3 1 2 3 3 2 1 2 2 3 4 5 7 6 6 6 6 4 4 4 3 3 3 2 3 4 2 2 3 2 1 1 2 2 2 2 2 3 6 5 3 3 5 8 8 8 9 11 14 17 18 17 17 17 16 15 16 17 18 17 17 17 18 18 19 19
21 22 22 22 20 18 15 12 8 7 6 5 5 7 8 11 17 17 13 8 5 3 2 3 4 3 3 3 2 2 3 4 6 7 7 6 6 7 8 8 8 7 6 5 4 5 5 4 3 4 2 0 1 3 4 4 4 4 5 7 6 5 5 6 7 8 9 10 12 14 15 15 16 17 17 18 18 19 21 21 21 21 22 22 22 22 21
21 22 22 22 21 18 15 11 7 6 6 4 4 5 5 8 15 17 15 11 6 2 2 3 4 3 3 2 2 3 3 5 6 6 6 7 7 6 8 9 9 7 7 6 5 5 6 5 4 4 4 2 3 5 6 5 5 6 7 7 6 6 6 6 6 7 8 8 11 13 12 12 16 19 21 22 23 24 24 25 25 25 24 24 25 25 25
21 22 22 22 21 18 15 11 6 4 4 4 3 2 2 6 12 15 16 14 8 3 4 3 1 1 2 3 2 3 3 3 3 3 3 3 3 3 5 7 8 7 6 6 5 5 6 5 4 4 4 3 3 5 5 5 6 6 5 4 5 5 6 6 7 8 10 13 17 19 17 17 20 24 25 26 26 26 25 25 25 24 24 24 24 25 25
21 22 22 22 20 17 14 10 4 2 3 5 4 2 1 4 9 13 16 15 10 5 5 3 1 1 2 3 4 4 4 4 3 2 3 3 2 2 3 5 6 6 5 5 6 6 6 6 5 5 3 2 2 4 4 4 6 5 3 4 6 6 6 9 12 13 16 20 22 22 21 22 24 26 26 26 26 25 25 24 23 23 23 23 24 24 25
21 22 21 20 18 16 14 9 2 1 2 5 5 2 0 2 6 10 15 16 11 6 4 3 1 2 3 5 6 5 5 6 5 3 2 2 3 2 2 3 4 5 5 5 6 6 6 6 6 4 2 2 4 4 4 4 6 5 3 6 8 9 11 14 15 15 17 21 22 22 23 24 25 26 26 25 23 23 23 23 24 24 23 23 25 26 26
20 21 21 19 16 15 13 7 1 0 2 4 4 3 2 2 5 9 13 15 12 6 3 3 1 2 2 4 7 7 5 5 7 5 2 2 3 2 1 1 2 3 4 5 6 5 5 5 5 4 2 3 4 5 4 5 6 6 6 9 12 13 16 17 16 16 18 22 24 23 23 23 22 23 23 23 22 22 23 25 26 25 23 22 23 25 25
19 20 20 17 14 14 11 5 1 1 3 3 3 2 2 3 5 8 12 14 11 6 3 3 0 1 0 2 6 9 6 4 5 6 3 3 5 3 1 1 2 2 4 5 5 4 3 3 5 5 3 3 4 5 5 5 6 7 11 14 16 17 19 19 20 21 21 21 20 19 18 19 19 20 22 23 24 23 24 24 24 22 20 20 21 21 21
17 19 18 15 13 12 9 4 1 1 3 4 3 3 3 4 6 9 11 11 8 5 4 3 1 0 1 1 2 9 9 4 5 7 4 4 7 5 2 1 1 1 2 3 3 3 2 2 4 5 2 2 4 5 5 5 6 10 14 17 19 21 22 23 23 21 19 18 16 15 16 19 20 20 21 22 22 21 21 21 20 19 19 20 20 20 19
16 17 17 13 11 10 8 4 2 2 3 3 3 3 5 6 7 9 10 9 6 4 4 3 2 1 1 1 1 7 9 6 6 8 6 5 8 7 3 2 1 2 0 2 4 4 3 3 4 4 1 2 3 4 4 5 9 14 18 20 22 23 23 21 19 17 16 17 17 16 17 18 18 18 18 19 18 18 17 17 17 18 18 19 19 18 17
15 16 15 13 10 8 7 5 3 2 1 1 2 5 8 7 8 9 8 6 3 2 2 2 2 1 2 1 1 6 9 7 6 7 6 6 6 6 5 4 3 1 2 4 5 4 2 2 4 4 2 1 2 3 3 8 13 18 21 22 22 21 19 18 16 16 16 16 16 15 15 16 16 16 16 16 16 16 15 15 16 17 17 17 16 15 14
16 15 14 12 9 7 5 4 2 1 1 4 6 7 8 6 5 6 5 3 1 1 1 2 2 2 3 2 2 6 8 6 5 6 6 5 4 4 4 5 3 2 3 4 4 2 1 1 3 4 2 2 3 2 5 12 17 20 20 19 18 17 16 15 15 15 15 14 14 14 14 15 15 15 15 16 15 15 15 15 15 14 14 13 12 11 11
18 16 13 11 9 5 2 3 4 3 4 5 5 5 4 3 2 2 2 1 1 1 2 2 1 3 4 3 3 5 6 6 7 7 5 5 5 4 3 4 3 3 3 4 2 2 2 2 3 5 3 2 2 4 9 14 17 18 17 15 15 14 14 13 12 13 14 15 15 14 14 15 15 14 15 16 15 13 12 12 11 10 10 9 9 9 9
16 15 13 11 7 3 2 5 6 5 4 3 3 2 2 2 1 1 0 1 2 0 1 2 1 2 1 3 3 5 5 6 7 6 4 5 5 3 2 2 2 3 4 2 1 2 4 3 3 4 4 1 2 6 11 14 16 15 14 13 13 13 13 12 12 13 16 16 15 14 15 16 16 16 15 13 10 9 9 10 9 9 9 9 8 8 8
14 14 15 13 8 4 6 8 6 3 2 2 2 1 1 1 1 2 1 1 2 1 1 2 1 2 2 4 4 4 5 6 7 6 5 5 4 3 3 3 1 2 4 2 2 1 4 3 2 4 3 0 3 9 13 15 16 15 12 11 13 13 13 14 15 16 15 15 14 14 14 14 14 14 11 8 6 7 8 9 9 9 9 9 9 9 9
13 14 14 12 9 8 8 7 4 1 0 1 1 1 2 1 1 0 1 2 2 2 0 2 2 2 2 4 4 4 5 6 6 5 5 4 2 2 4 3 2 2 4 1 2 2 4 3 3 4 3 2 7 12 14 16 17 16 12 11 13 12 12 14 16 15 14 13 12 11 10 8 8 8 7 6 7 8 9 11 12 12 13 15 15 15 14
14 14 13 12 12 9 6 3 2 2 1 1 1 1 1 1 0 0 2 2 1 1 0 2 3 2 1 2 4 5 6 5 4 4 5 3 1 2 4 3 2 2 4 1 2 3 4 3 4 4 3 6 10 13 14 16 18 16 13 12 12 11 12 15 15 13 12 11 9 7 6 6 6 6 8 9 10 10 11 13 14 16 17 19 19 20 20
16 16 15 14 11 7 3 2 1 1 1 2 1 1 1 1 1 1 2 1 1 1 0 1 3 5 5 5 6 6 5 4 3 4 4 2 1 2 4 2 1 3 3 2 3 3 4 4 5 4 4 8 11 12 14 17 18 15 13 13 12 12 13 15 14 11 10 8 6 4 4 6 9 11 12 12 12 13 14 15 15 16 17 18 19 20 22
16 16 14 10 6 3 2 0 1 1 1 1 1 1 1 1 1 1 1 1 0 2 2 2 4 6 6 5 5 5 4 4 3 4 4 3 1 2 3 2 2 2 2 3 4 4 4 4 5 4 6 11 12 12 14 16 16 14 12 12 11 11 12 13 11 8 7 6 5 6 9 13 14 12 10 10 11 13 15 16 16 16 16 17 18 19 20
15 13 10 6 3 1 1 1 1 1 1 1 1 1 1 1 1 1 1 0 0 2 4 5 6 7 6 5 5 6 4 3 2 3 4 3 2 2 3 2 2 2 3 3 4 4 3 3 4 5 8 11 13 13 14 15 14 12 12 11 9 9 11 12 8 5 4 4 7 11 15 16 15 13 13 13 12 12 13 14 15 15 15 16 17 17 18
11 8 6 4 1 1 1 1 2 2 2 1 2 2 2 2 2 3 2 2 3 6 8 8 9 10 9 8 6 4 3 3 3 3 3 3 3 3 3 2 2 3 3 3 4 3 3 3 3 5 8 11 13 14 15 15 12 10 10 10 8 8 10 10 7 4 5 8 13 16 17 16 15 14 14 14 12 10 10 12 13 14 15 16 16 16 16
8 6 4 3 2 1 1 1 1 1 1 2 2 2 3 4 5 5 4 4 6 9 10 10 10 11 11 9 6 4 4 5 5 3 2 3 4 3 2 2 3 3 3 3 4 4 3 3 4 6 8 11 14 15 16 14 10 7 8 9 7 6 8 8 5 4 8 12 16 16 14 13 13 12 12 12 12 11 10 10 11 13 14 15 16 16 16
6 5 3 1 2 1 2 2 2 1 1 2 3 3 4 5 6 7 6 6 8 9 10 10 10 10 9 8 7 5 5 5 4 3 3 4 4 3 1 2 3 3 3 4 5 4 4 4 6 7 9 11 14 15 15 13 8 6 7 7 6 5 7 6 4 7 10 14 15 14 12 11 10 10 11 12 13 13 12 11 12 13 14 14 15 16 16
5 3 2 2 2 2 2 1 2 3 4 4 4 4 4 5 7 7 7 7 8 8 8 8 8 8 6 5 5 6 4 3 4 4 4 3 3 3 2 3 4 3 3 4 5 4 5 6 7 8 10 12 13 13 13 11 7 4 5 6 4 3 5 4 4 8 11 13 13 11 10 9 8 8 10 11 12 13 13 12 13 13 13 13 14 15 15
4 3 3 3 3 4 4 3 4 6 7 7 6 5 6 7 9 9 8 7 7 7 7 6 6 6 5 3 4 5 5 3 3 3 3 3 3 3 3 4 5 4 4 4 4 5 7 9 9 8 10 12 12 12 12 9 5 3 3 5 3 1 2 2 4 8 11 12 12 11 9 8 7 7 8 9 11 11 11 11 12 13 13 13 13 13 14
4 4 5 5 5 5 5 4 5 6 6 7 7 7 7 8 9 8 5 5 6 6 7 7 6 5 4 4 4 4 4 4 4 4 5 5 5 4 4 5 5 5 5 5 5 7 9 10 9 9 10 12 12 11 11 9 6 3 2 3 2 1 1 2 5 9 11 12 12 11 9 7 6 6 7 8 9 10 10 10 11 11 12 12 13 14 15
3 4 6 7 7 7 6 6 6 7 7 8 9 9 8 9 9 7 4 4 6 7 6 6 6 4 4 4 4 3 2 3 4 5 6 5 5 4 6 6 6 6 7 8 8 9 10 10 9 9 10 11 11 11 11 9 6 4 2 1 1 1 2 3 5 8 11 12 12 10 9 7 6 8 9 9 8 8 9 10 10 11 11 12 13 14 15
5 5 6 8 10 11 11 11 11 11 10 11 11 10 9 9 9 7 5 5 7 8 7 6 5 4 4 4 4 3 2 2 3 4 5 5 5 6 7 7 8 8 9 9 9 10 11 11 10 10 10 10 10 10 10 8 5 5 3 1 0 1 2 3 5 8 10 12 12 10 8 7 7 8 8 7 6 5 5 7 8 9 10 10 11 13 13
Wind_Direction
6 6 6 4 2 360 357 355 352 349 349 351 355 358 349 290 295 301 281 265 205 214 235 209 208 233 237 68 140 119 214 224 204 195 220 234 221 218 220 221 238 235 238 249 238 236 247 240 239 249 214 154 85 62 30 251 234 251 267 154 122 180 256 255 252 254 258 234 136 152 186 249 261 254 253 268 272 270 270 277 287 277 263 267 264 260 255
9 8 8 6 4 1 359 357 357 355 353 352 356 359 338 306 300 308 315 277 197 217 246 233 225 205 147 180 182 150 141 269 248 227 229 287 249 235 219 198 235 223 204 243 239 226 230 229 225 243 224 148 90 59 30 250 233 254 336 30 141 217 248 249 258 257 245 226 205 194 193 215 246 252 245 267 275 276 275 273 275 264 258 262 261 262 260
11 10 10 9 6 3 1 360 360 360 355 351 355 356 332 305 267 278 1 15 175 202 347 301 249 165 159 198 182 167 169 74 11 310 360 20 310 273 230 132 244 219 197 227 229 218 237 240 210 209 204 146 114 79 43 302 231 63 27 7 200 251 264 245 257 259 248 245 242 239 244 231 229 238 235 251 261 260 264 264 257 250 256 258 255 265 269
11 11 11 12 9 6 4 2 2 3 360 356 2 6 347 312 288 71 23 37 69 80 51 8 285 147 176 195 167 216 201 122 64 317 122 69 343 297 335 193 235 217 208 224 222 209 220 236 225 212 199 160 132 115 91 55 71 76 45 13 218 251 265 250 254 260 264 272 280 330 342 289 264 256 243 231 231 243 255 260 257 261 265 257 249 262 268
12 11 12 13 12 10 8 6 4 5 10 16 19 15 4 331 356 3 356 37 64 84 62 28 18 53 296 237 138 244 222 162 128 159 76 58 84 264 268 223 234 224 215 225 227 211 207 218 224 220 208 166 129 136 182 116 75 106 116 294 240 250 254 248 252 257 264 275 283 301 307 279 273 273 263 249 233 232 241 250 261 275 272 260 260 266 263
13 12 12 14 15 14 13 11 8 9 15 21 24 24 24 33 51 25 8 360 30 54 36 16 22 58 357 299 76 267 227 212 145 106 74 76 191 267 220 195 231 238 228 232 222 210 210 211 210 202 198 186 160 163 184 164 125 203 200 187 259 260 259 254 255 259 263 268 271 272 268 263 265 266 264 261 254 247 246 248 256 264 261 261 280 281 262
14 14 13 15 16 16 16 15 16 17 17 20 35 54 38 32 52 41 28 30 28 20 4 344 351 47 23 22 58 352 260 108 66 40 354 187 130 301 235 185 150 180 228 249 231 212 220 209 196 192 185 194 203 204 193 176 183 208 204 129 345 273 270 267 265 267 268 267 264 259 255 257 259 257 256 257 257 255 254 253 254 257 259 264 279 281 266
14 14 14 15 16 19 20 18 20 22 21 32 53 60 51 34 27 6 344 39 47 21 1 325 272 74 19 27 74 50 42 67 73 47 9 347 68 343 259 156 79 62 158 244 176 60 15 11 99 62 215 193 218 242 244 198 189 203 230 166 151 248 275 307 277 271 269 267 263 256 251 256 259 256 255 256 257 254 253 255 254 253 260 264 265 267 265
14 13 14 16 17 21 22 21 23 23 28 44 53 53 51 43 33 2 316 2 23 360 11 352 284 98 56 27 49 57 49 48 67 72 42 25 35 17 348 44 78 144 105 77 61 40 8 353 13 347 293 291 303 273 305 300 229 226 254 243 187 236 262 267 262 266 268 265 260 257 261 267 263 257 253 251 251 251 251 252 246 241 250 257 256 259 264
14 13 13 15 17 21 23 24 25 25 33 47 47 43 41 37 31 18 328 314 16 353 7 4 295 61 47 23 28 35 40 50 61 121 73 51 38 25 4 353 282 208 116 64 26 1 337 322 323 310 293 299 296 277 281 287 275 270 271 258 240 253 264 266 261 266 272 271 268 273 281 276 267 258 245 240 244 250 252 252 249 244 244 251 255 261 281
14 14 13 13 15 20 23 26 27 27 34 44 42 35 34 30 26 7 313 267 51 1 337 28 28 59 36 18 33 33 22 40 18 324 102 77 38 21 14 353 293 220 65 22 348 330 317 305 297 284 274 268 262 261 264 262 260 262 263 261 257 254 260 266 264 265 269 270 277 285 268 259 264 15 217 244 255 262 261 262 262 259 258 266 274 278 287
14 14 13 12 14 19 22 26 29 30 36 45 44 35 30 28 26 357 315 319 51 11 12 56 43 32 25 10 21 39 24 31 28 10 38 76 44 24 26 13 345 15 17 349 329 320 301 273 246 239 245 249 249 249 251 252 250 249 248 251 252 246 247 257 260 261 267 269 258 255 257 258 65 75 85 275 281 280 278 279 281 289 289 284 284 284 281
15 14 13 12 13 16 21 25 29 31 35 43 44 37 30 31 31 6 332 332 46 24 20 79 74 38 22 11 9 42 44 40 56 51 44 58 48 42 42 27 359 346 344 335 325 309 278 252 246 245 241 241 245 246 244 246 247 241 234 238 244 244 245 252 255 251 254 255 242 243 267 348 20 192 153 167 245 252 265 261 233 54 339 294 290 294 299
15 14 13 12 12 14 18 23 28 31 33 38 42 37 32 36 39 26 355 340 50 52 350 136 92 47 23 18 357 317 101 73 103 94 64 39 25 30 30 12 349 333 327 322 302 274 260 259 259 256 248 238 241 248 243 239 244 242 233 230 232 239 246 247 247 245 247 255 253 255 275 286 270 239 153 63 288 278 285 271 236 92 42 343 341 340 348
13 14 12 12 12 12 14 18 24 29 30 34 40 36 31 34 39 38 16 343 348 83 38 24 32 5 354 16 354 316 238 180 244 150 107 73 23 18 11 351 338 327 319 303 274 255 253 260 258 255 255 248 246 257 249 225 209 215 230 227 216 227 243 244 245 245 243 256 264 264 267 273 280 90 86 56 3 328 303 282 254 113 76 29 7 358 337
10 12 11 11 11 11 12 13 18 25 27 29 35 33 28 28 32 40 32 344 317 57 57 31 1 326 322 3 360 345 346 343 325 272 174 116 39 21 8 348 335 332 314 276 255 261 250 240 247 252 254 253 252 260 261 245 207 156 176 203 197 212 237 242 248 251 245 254 264 262 263 274 45 72 63 48 26 333 285 257 241 61 42 23 355 345 336
8 9 9 10 10 10 11 9 12 21 24 25 29 28 23 22 25 35 35 352 334 61 63 20 336 302 300 4 35 12 359 352 349 308 264 57 30 11 4 357 348 346 316 270 235 242 243 233 246 254 253 258 262 261 264 258 240 197 181 196 199 207 225 232 241 248 246 249 257 262 269 291 58 59 32 42 52 340 269 244 234 15 7 357 341 320 313
7 8 7 8 9 10 11 9 10 16 21 25 28 25 24 25 25 33 33 348 342 72 77 24 15 11 9 13 9 7 356 339 334 318 283 64 25 2 359 2 10 62 329 286 236 236 247 241 252 261 257 210 249 266 278 267 245 238 228 227 227 224 227 236 244 249 250 250 255 263 269 342 61 50 41 47 58 236 249 256 321 352 340 343 339 315 305
7 7 7 7 9 10 11 10 9 13 20 27 29 21 22 25 25 32 39 4 347 43 52 55 79 53 29 12 3 11 3 339 333 318 260 128 25 349 322 353 12 3 345 302 241 248 260 244 246 269 260 221 189 265 277 265 250 258 257 255 254 245 239 245 248 252 256 253 258 266 263 70 53 31 49 53 278 243 260 321 329 324 324 331 328 314 305
6 7 7 8 8 10 12 12 11 15 23 31 32 20 18 22 21 25 34 16 350 32 44 100 128 73 22 11 6 4 9 8 357 340 337 40 6 324 251 161 32 360 4 9 330 313 278 253 243 289 269 258 58 310 274 255 251 268 270 265 265 263 262 257 248 253 262 253 254 265 255 82 45 12 17 61 308 305 324 317 307 313 319 317 312 310 304
6 8 8 9 8 8 11 13 15 21 28 36 38 27 15 18 17 16 22 21 356 357 32 123 154 92 351 8 15 356 354 358 351 349 8 20 355 334 331 71 23 7 20 9 4 66 336 289 296 301 272 266 255 269 282 270 247 218 269 282 272 256 261 270 263 259 261 248 251 285 292 71 15 344 316 308 314 314 312 304 299 307 314 308 303 302 296
7 10 10 9 7 7 9 14 18 26 35 42 42 29 17 18 16 13 21 35 36 37 65 112 132 74 113 112 78 48 17 357 352 354 355 356 4 20 49 51 40 43 22 349 328 86 360 296 301 293 274 270 267 269 283 281 263 216 164 257 266 269 330 304 284 274 278 272 280 303 301 293 307 315 303 300 302 302 301 297 295 298 301 298 294 291 289
6 9 11 10 6 5 8 13 19 27 40 46 43 32 23 23 20 19 28 45 58 76 86 87 78 80 90 68 19 31 19 355 2 6 345 331 350 51 53 34 45 62 33 4 1 4 339 316 329 317 292 285 285 275 269 264 267 275 270 264 271 289 312 303 283 279 285 278 272 280 287 291 298 300 296 294 294 293 296 295 292 292 293 293 292 290 289
5 7 9 9 6 4 5 10 17 25 38 48 45 38 30 24 22 24 31 36 32 66 99 101 79 59 30 319 304 295 313 320 324 332 331 323 320 340 47 41 28 40 53 37 11 336 319 311 316 307 299 316 307 281 278 272 274 295 292 272 270 285 317 297 278 277 284 278 270 282 290 295 297 296 293 291 287 286 288 291 293 295 293 292 292 292 290
5 4 5 7 5 2 1 3 10 19 31 45 46 43 35 23 21 24 27 23 8 349 34 101 71 26 3 5 358 322 294 298 309 313 312 306 297 291 306 340 327 319 355 7 328 294 289 283 271 270 280 332 324 292 295 282 277 306 296 279 288 4 20 308 282 277 279 280 284 290 290 290 292 292 290 288 288 290 290 288 289 292 292 290 289 288 287
5 1 360 1 2 359 355 354 357 10 25 37 44 48 41 25 23 28 28 18 2 340 351 67 62 31 31 62 47 326 298 309 318 316 312 305 289 277 276 280 280 285 295 300 293 285 280 278 282 280 274 307 288 285 288 280 278 288 284 282 299 322 317 302 298 291 280 278 285 293 295 293 292 291 290 291 293 295 296 294 291 289 288 286 285 283 282
5 359 356 357 358 354 350 346 341 357 17 29 41 49 42 22 23 29 28 19 6 334 351 49 59 58 78 84 16 336 329 324 317 313 313 311 301 289 281 276 272 272 272 271 269 266 266 265 267 275 287 304 287 280 283 283 284 282 276 281 300 302 295 302 306 292 283 291 303 308 305 296 292 293 295 297 298 298 298 297 294 290 287 286 285 284 280
3 358 355 355 353 350 346 341 329 337 8 25 36 38 32 23 23 25 25 24 25 1 331 346 28 100 121 107 27 353 358 356 344 344 346 334 317 307 288 270 265 263 261 265 268 262 263 271 278 286 296 299 290 286 283 277 278 278 280 305 326 316 308 311 306 293 291 297 301 301 296 290 291 294 296 298 300 300 299 295 292 290 289 289 288 286 283
1 357 355 354 352 349 346 341 327 318 359 23 33 28 33 28 20 18 18 19 22 2 317 294 216 105 59 62 40 13 15 28 40 59 56 44 27 348 291 258 259 263 260 263 274 277 279 285 294 302 296 256 267 297 297 284 282 284 310 350 336 313 302 303 300 296 294 294 296 297 294 292 294 296 297 298 298 298 296 293 291 291 292 293 291 288 284
358 356 356 355 353 352 350 347 335 283 9 35 41 28 340 13 6 9 11 9 9 4 325 304 78 85 55 41 33 24 27 32 35 51 62 31 8 346 297 253 250 255 250 249 264 282 292 290 289 293 269 229 259 286 294 290 288 293 333 340 318 302 301 304 302 298 294 295 298 298 295 295 296 296 295 294 294 294 294 294 295 296 297 297 294 288 281
355 355 357 358 356 356 357 360 11 180 31 43 36 4 351 3 355 356 1 3 7 8 330 309 59 110 89 44 32 22 22 31 28 26 31 10 3 3 331 278 256 249 259 266 269 279 290 293 291 286 245 226 250 276 291 288 283 294 322 326 315 309 311 311 307 300 295 295 297 296 293 292 294 295 293 294 296 297 296 296 297 297 295 295 294 287 281
353 355 358 360 360 358 2 13 60 65 35 34 25 14 15 6 352 348 352 359 7 7 334 311 191 129 74 57 40 23 13 18 14 6 9 15 2 348 292 310 310 265 267 279 275 274 285 292 291 294 277 222 243 271 285 282 285 306 319 319 316 316 315 312 308 304 301 301 302 301 297 296 297 297 297 298 299 299 297 296 296 294 294 296 295 290 283
355 356 357 0 2 2 9 21 348 334 5 3 2 8 355 344 343 343 347 356 3 8 4 347 255 71 19 145 55 22 13 5 359 356 6 22 3 339 294 321 323 249 256 282 277 281 291 271 277 288 276 211 254 276 281 287 307 320 322 319 319 319 316 313 311 308 305 307 310 307 301 300 300 298 298 299 301 300 298 296 295 293 293 295 294 291 288
358 355 355 360 2 2 12 27 4 327 352 360 356 329 311 315 326 329 338 353 358 360 18 6 267 275 23 199 131 27 14 2 358 358 360 9 360 344 323 310 256 206 260 317 291 280 275 268 282 289 245 206 260 275 283 308 324 327 323 321 322 321 318 316 314 311 309 310 308 304 300 300 300 299 300 302 304 304 303 301 299 297 296 295 294 294 294
360 357 355 357 357 358 10 22 28 35 22 345 316 308 303 305 313 317 327 350 349 325 12 357 295 324 8 335 54 23 7 355 360 358 346 345 357 358 341 311 274 212 8 328 292 276 276 297 301 294 262 215 261 266 296 324 329 328 326 325 326 325 321 317 315 311 309 308 306 304 305 306 305 303 304 307 310 310 311 310 308 305 303 300 299 298 299
2 359 355 353 354 356 355 351 3 56 311 301 307 313 311 309 310 315 328 353 357 343 352 311 290 358 5 352 14 4 349 347 1 356 339 334 349 360 337 309 303 14 344 291 266 271 327 339 302 289 285 290 283 303 339 333 328 328 327 325 324 322 317 314 314 311 310 311 311 310 311 311 309 307 310 315 318 318 318 320 321 319 317 317 316 314 311
1 360 358 356 356 355 319 297 303 296 291 301 314 328 343 352 333 322 346 348 314 19 341 283 294 35 6 335 347 347 338 346 357 353 350 348 343 344 331 318 339 359 310 271 267 346 334 294 279 287 298 300 301 342 349 337 329 328 325 320 319 319 317 317 317 314 315 318 319 319 317 316 315 317 319 321 324 326 330 336 340 343 345 346 346 342 335
357 0 4 8 10 1 297 303 311 304 298 313 330 338 3 15 331 215 195 278 276 28 314 280 329 41 330 297 346 355 343 343 345 346 2 360 342 332 327 327 349 342 303 288 60 350 295 258 254 286 298 307 329 339 343 338 333 331 326 321 321 319 316 319 321 318 318 321 323 325 324 320 320 323 326 329 334 343 353 360 4 7 10 10 10 8 6
354 1 8 14 17 349 310 309 313 303 293 324 346 314 297 302 245 205 198 257 254 187 211 271 350 25 321 309 345 4 350 337 334 340 360 2 352 347 339 336 7 326 294 285 92 346 294 281 273 283 283 313 340 339 341 339 337 335 328 320 320 318 316 321 324 322 320 318 318 322 324 321 322 328 336 347 358 4 12 20 22 23 25 28 28 26 21
356 359 0 359 350 330 313 312 324 353 276 304 329 269 249 256 269 286 264 238 204 160 180 309 340 15 331 316 329 343 344 340 335 331 336 344 360 340 321 329 13 323 290 282 73 348 303 300 297 287 288 347 344 342 343 340 338 336 328 318 320 322 323 324 325 324 322 318 317 322 329 330 333 340 354 16 24 27 37 46 50 52 54 54 55 53 50
352 348 341 334 332 331 329 333 12 66 145 245 259 250 248 240 119 268 268 260 206 128 92 311 311 319 355 315 303 311 329 340 327 304 305 321 357 316 306 325 9 297 277 314 25 318 292 294 294 292 328 356 344 340 340 340 339 338 331 324 322 324 327 329 329 328 329 329 330 337 346 354 13 37 55 63 65 66 67 65 64 63 62 62 62 63 63
339 334 329 326 330 340 3 34 55 106 224 258 253 216 224 250 237 234 247 272 353 360 286 296 315 319 317 303 287 291 314 328 308 282 290 319 360 305 303 322 304 260 276 344 339 292 281 291 287 292 350 354 344 339 341 340 338 334 329 327 326 326 331 333 332 333 340 347 355 11 32 61 78 81 81 80 80 81 79 75 71 68 67 66 66 64 65
336 334 332 331 335 350 13 60 205 212 232 240 227 212 227 225 219 233 237 203 268 289 290 308 314 310 306 295 280 279 294 303 293 285 298 316 325 289 290 287 255 260 309 327 293 275 286 296 291 309 344 345 341 341 340 337 334 331 329 331 331 334 340 341 339 342 358 16 40 73 92 100 100 94 87 84 82 82 82 80 77 74 71 68 66 64 63
344 342 335 328 323 323 316 240 192 206 241 220 211 236 248 220 214 257 280 330 266 288 302 312 309 304 305 305 296 288 282 272 258 270 289 300 291 270 279 285 280 303 317 295 273 282 300 285 281 313 335 337 339 342 338 333 332 333 334 335 335 341 348 353 356 5 24 56 93 107 110 109 104 99 96 92 86 79 78 79 77 75 72 69 66 64 62
347 343 332 318 289 280 300 254 197 216 238 219 204 237 270 290 296 297 316 341 312 295 297 299 296 294 296 294 285 268 255 263 267 268 283 298 290 272 278 299 312 307 296 277 271 285 285 265 282 326 337 335 338 340 337 335 336 338 337 336 336 345 355 1 14 42 76 104 117 120 117 111 104 99 95 90 83 74 71 74 77 76 73 69 65 62 60
346 347 342 325 301 297 292 243 212 212 211 206 227 265 292 307 310 309 311 307 294 291 293 293 290 289 290 290 279 251 246 269 280 275 271 288 287 277 282 300 287 272 267 270 275 279 285 297 324 339 338 335 337 340 340 339 339 340 341 339 339 349 360 6 28 83 114 125 129 127 121 113 106 97 89 85 82 77 73 72 74 76 74 71 68 66 65
340 345 345 298 269 252 233 231 248 277 255 242 261 287 303 305 300 296 294 291 290 292 293 290 285 281 278 276 274 261 247 253 268 267 260 275 281 276 262 263 260 253 257 269 276 284 300 315 326 333 334 333 335 339 342 342 337 336 345 348 347 353 2 14 66 123 134 137 137 134 127 117 106 95 88 85 82 80 80 79 79 79 79 76 74 72 71
320 314 293 271 259 239 229 255 290 277 260 259 272 284 286 286 287 289 290 290 289 286 283 281 283 283 270 256 262 268 259 247 256 258 251 257 273 267 244 242 248 248 255 264 273 291 310 319 325 329 329 330 333 337 341 340 329 324 345 353 351 352 4 24 115 144 145 144 143 141 133 119 106 96 89 84 81 81 82 81 80 79 78 77 75 72 71
297 270 255 262 270 263 259 273 287 277 266 263 267 269 272 279 285 290 292 288 281 276 273 272 277 282 277 260 262 267 259 242 243 248 234 231 242 244 241 254 263 263 260 264 276 294 305 312 316 316 318 323 329 334 337 333 314 299 341 352 345 343 19 54 156 164 159 154 154 153 146 133 120 108 94 86 83 81 78 77 76 75 73 72 71 68 67
268 245 239 241 252 263 262 261 272 277 272 268 268 271 276 282 286 290 290 278 271 273 272 260 251 255 263 266 270 270 255 236 239 251 247 242 242 242 245 252 260 265 270 277 287 298 305 309 310 309 312 318 322 327 333 330 308 278 321 352 341 275 166 166 180 182 177 170 166 166 164 153 134 120 110 100 90 81 74 72 71 67 63 60 59 58 58
243 239 242 241 247 263 276 277 279 283 282 281 284 286 284 282 283 285 280 269 268 270 268 258 248 246 247 246 251 261 256 235 237 249 252 250 246 248 251 255 263 275 282 284 289 296 304 309 308 305 307 311 313 318 328 328 304 262 254 357 353 259 195 183 188 193 189 181 174 175 180 170 143 125 118 108 93 79 70 64 60 57 54 51 49 48 49
224 238 257 258 256 262 270 274 276 278 278 279 283 283 278 276 278 277 267 259 258 260 264 265 257 245 244 250 252 252 246 231 230 240 246 242 233 237 254 268 277 280 282 285 290 295 301 307 309 304 300 300 302 310 321 321 293 249 224 192 145 220 204 193 194 197 193 186 181 183 186 174 151 137 128 119 107 93 78 65 57 55 54 52 51 50 50